Starlink 30357

operational
NORAD ID: 57750 Int'l Des: 2023-131 Owner: SPXS Country: US Constellation: starlink
LEOCIRCULAR

Über Starlink 30357

Beschreibung wird geladen...

Live-Position

3D-Globus wird geladen...

Nächste Überflüge

Höhenverlauf

Altitude vs Time

uPlot chart will show altitude changes over time

Zweizeiliger Elementsatz

1 57750U 23131U 25258.29355654 .00000063 00000-0 19736-4 0 9994
2 57750 43.0039 44.5298 0001171 267.7645 92.3063 15.02534259113547
Epoch: 15. Sept. 2025 • Age: 10 hours

Aktueller Status

Höhe 558.5 km
Geschwindigkeit 7.58 km/s
Subsatellitenpunkt 3.78°N, 37.64°W
Startdatum 1. Sept. 2023
Alter 2 years
Typ internet

Technische Details

Klassifizierung Payload
Masse 730.00 kg
Trockenmasse 700.00 kg
Gesamtmasse 730.00 kg
Länge 0.30 m
Durchmesser 4.10 m
Spannweite 29.00 m
Form Box + pan
Hersteller SPXS
Bus-Typ Starlink V2M
Phasenstatus In Orbit
Besitzer/Staat SPXS/US

Große Konstellationen

Loading constellations...